CW5039 Weather Reports


time (UTC)temp
F
wind
direction
speed
knots
gust
knots
rain 1hr
in
rain 24hr
in
rain mn
in
humidity
%
barometer
mb
20260509042905 63 284 10.4 14.8 0.00 0.58 0.31 82 1003.1
20260509042405 64 274 6.1 7.8 0.00 0.58 0.31 82 1003.0
20260509041904 64 279 6.1 10.4 0.00 0.58 0.31 81 1003.0
20260509035906 64 280 10.4 14.8 0.00 0.58 0.31 79 1003.2
20260509033905 65 289 10.4 14.8 0.00 0.58 0.31 76 1002.9
20260509032405 67 264 8.7 13.0 0.00 0.58 0.31 72 1002.9
20260509031905 67 276 7.8 11.3 0.00 0.58 0.31 74 1003.0
20260509031404 66 273 10.4 13.0 0.00 0.58 0.31 74 1003.0
20260509025404 66 279 12.2 17.4 0.00 0.58 0.31 72 1003.0
20260509024905 67 287 15.6 18.2 0.00 0.58 0.31 74 1003.0
20260509024405 67 288 12.2 18.2 0.00 0.58 0.31 74 1003.0
20260509023405 66 288 12.2 17.4 0.00 0.58 0.31 75 1003.0
20260509022905 66 293 14.8 17.4 0.00 0.58 0.31 73 1002.9
20260509021404 67 272 10.4 14.8 0.00 0.58 0.31 75 1002.9
20260509020405 68 285 10.4 13.0 0.00 0.58 0.31 75 1003.1
20260509015405 68 279 10.4 13.9 0.00 0.58 0.31 76 1003.1
20260509014905 68 299 9.6 13.9 0.00 0.58 0.31 76 1003.0
20260509014405 68 288 13.9 17.4 0.00 0.58 0.31 75 1003.0
20260509013905 68 289 13.9 17.4 0.00 0.58 0.31 75 1003.0
20260509013405 68 300 11.3 15.6 0.00 0.58 0.31 75 1003.0
20260509012405 67 291 11.3 17.4 0.00 0.58 0.31 77 1003.2
20260509010905 66 280 13.0 17.4 0.00 0.58 0.31 76 1003.4
20260509010405 66 293 15.6 18.2 0.00 0.58 0.31 77 1003.5
20260509004405 66 293 8.7 13.0 0.00 0.58 0.31 79 1003.8
20260509003405 67 291 12.2 17.4 0.00 0.58 0.31 77 1004.0
20260509002904 67 300 12.2 20.0 0.00 0.58 0.31 77 1004.1
20260509001405 67 288 15.6 20.9 0.01 0.58 0.31 79 1004.5
20260508235406 65 296 11.3 17.4 0.11 0.58 0.31 87 1005.0
20260508234905 64 280 11.3 17.4 0.11 0.58 0.31 86 1005.0
20260508233905 63 281 12.2 14.8 0.11 0.58 0.31 87 1005.1
20260508232905 63 296 13.9 17.4 0.11 0.58 0.31 87 1005.1
20260508231905 62 282 10.4 13.0 0.11 0.58 0.31 88 1005.3
20260508231404 64 275 12.2 18.2 0.10 0.57 0.31 83 1005.4
20260508225904 67 297 9.6 13.9 0.00 0.47 0.20 84 1005.1
20260508224405 66 318 10.4 13.0 0.00 0.47 0.20 84 1005.4
20260508223905 66 315 10.4 12.2 0.00 0.47 0.20 85 1005.4
20260508223404 66 308 10.4 13.9 0.00 0.47 0.20 85 1005.6
20260508222904 66 315 12.2 14.8 0.00 0.47 0.20 85 1005.5
20260508221405 65 307 12.2 15.6 0.00 0.47 0.20 86 1005.7
20260508220905 65 287 12.2 15.6 0.00 0.47 0.20 85 1005.7
20260508214904 63 318 11.3 14.8 0.01 0.47 0.20 89 1005.9
20260508213405 63 324 8.7 11.3 0.02 0.47 0.20 90 1005.9
20260508212904 64 324 7.8 11.3 0.02 0.47 0.20 91 1005.9
20260508212405 63 331 10.4 12.2 0.02 0.47 0.20 91 1005.9
20260508211404 63 320 8.7 12.2 0.02 0.47 0.20 92 1006.0
20260508210405 62 332 8.7 11.3 0.02 0.47 0.20 93 1005.9
20260508205404 61 324 8.7 11.3 0.02 0.47 0.20 93 1005.9
20260508204906 61 333 8.7 12.2 0.01 0.46 0.20 93 1005.9
20260508201904 60 337 7.8 10.4 0.00 0.46 0.19 94 1005.6
20260508200404 59 352 7.8 10.4 0.00 0.46 0.19 94 1005.6
20260508195905 58 348 7.0 10.4 0.00 0.46 0.19 94 1005.5
20260508195405 58 338 5.2 7.0 0.00 0.46 0.19 94 1005.6
20260508192406 58 339 6.1 8.7 0.00 0.46 0.19 94 1005.3
20260508191406 58 332 6.1 8.7 0.00 0.46 0.19 94 1005.3
20260508190906 58 334 7.0 8.7 0.00 0.46 0.19 94 1005.2
20260508190405 57 330 7.8 10.4 0.00 0.46 0.19 94 1005.1
20260508184909 57 337 5.2 7.8 0.00 0.46 0.19 93 1005.0
20260508184406 57 335 5.2 7.8 0.00 0.46 0.19 93 1005.0
20260508183905 58 329 6.1 7.8 0.00 0.46 0.19 93 1005.1
20260508181405 59 321 7.0 10.4 0.00 0.46 0.19 94 1005.1
20260508175905 58 338 5.2 7.8 0.00 0.46 0.19 94 1005.1
20260508175405 58 323 6.1 8.7 0.00 0.46 0.19 94 1005.1
20260508174906 58 328 7.8 10.4 0.00 0.46 0.19 94 1005.1
20260508170405 58 326 8.7 10.4 0.00 0.46 0.19 93 1005.0
20260508165405 59 332 10.4 13.0 0.00 0.46 0.19 93 1005.0
20260508164905 59 329 8.7 10.4 0.00 0.46 0.19 93 1005.0
20260508163906 59 346 8.7 10.4 0.00 0.46 0.19 93 1005.1
20260508163405 59 349 8.7 11.3 0.00 0.46 0.19 93 1005.2
20260508162406 60 355 4.3 8.7 0.00 0.46 0.19 93 1005.3
20260508161905 60 7 6.1 8.7 0.00 0.46 0.19 93 1005.5
20260508161406 60 8 6.1 10.4 0.00 0.46 0.19 93 1005.4
20260508160405 60 15 7.8 11.3 0.00 0.46 0.19 93 1005.5
20260508153905 59 14 4.3 7.0 0.00 0.46 0.19 93 1005.5
20260508153405 60 14 5.2 7.8 0.00 0.46 0.19 93 1005.7
20260508152905 60 12 4.3 6.1 0.00 0.46 0.19 93 1005.7
20260508152406 60 8 5.2 8.7 0.00 0.46 0.19 93 1005.8
20260508151406 60 338 5.2 10.4 0.00 0.46 0.19 93 1005.9
20260508145906 60 330 4.3 6.1 0.00 0.46 0.19 93 1005.8
20260508144406 60 327 3.5 4.3 0.03 0.46 0.19 93 1005.9
20260508143906 60 338 2.6 4.3 0.03 0.46 0.19 93 1005.9
20260508143406 60 343 1.7 2.6 0.04 0.46 0.19 92 1005.8
20260508135406 60 346 1.7 2.6 0.05 0.46 0.19 92 1006.2
20260508134905 60 346 1.7 6.1 0.03 0.44 0.17 91 1006.2
20260508134406 60 342 1.7 4.3 0.02 0.43 0.16 91 1006.1
20260508133905 60 327 2.6 5.2 0.02 0.43 0.16 91 1006.1
20260508131906 60 302 0.9 1.7 0.02 0.42 0.15 90 1006.6
20260508130906 61 293 2.6 6.1 0.13 0.41 0.14 89 1006.5
20260508125406 61 288 8.7 12.2 0.16 0.41 0.14 89 1006.5
20260508123906 61 287 11.3 17.4 0.28 0.41 0.14 89 1006.4
20260508122906 61 278 12.2 19.1 0.02 0.41 0.14 91 1006.2
20260508122406 62 285 14.8 24.3 0.01 0.40 0.13 92 1006.2
20260508121405 64 290 22.6 28.7 0.26 0.39 0.12 92 1006.2
20260508120906 65 338 13.0 18.2 0.16 0.28 0.02 92 1005.2
20260508114905 65 10 8.7 12.2 0.14 0.24 0.24 92 1005.6
20260508113406 65 359 12.2 17.4 0.03 0.13 0.13 91 1006.0
20260508112906 65 0 13.9 19.1 0.03 0.13 0.13 91 1005.9
20260508112406 65 3 12.2 18.2 0.03 0.13 0.13 91 1006.0
20260508111906 65 5 15.6 22.6 0.03 0.13 0.13 90 1006.1
20260508110906 65 2 13.9 20.9 0.03 0.13 0.13 91 1006.3
20260508110405 65 1 15.6 19.1 0.04 0.13 0.13 91 1006.3
20260508104906 65 356 14.8 21.7 0.03 0.09 0.09 90 1006.8
20260508104406 65 358 15.6 20.9 0.04 0.09 0.09 91 1006.8
20260508103906 65 7 14.8 22.6 0.05 0.09 0.09 91 1006.8
20260508103406 65 14 13.9 19.1 0.06 0.09 0.09 91 1006.9
20260508101905 65 359 10.4 14.8 0.09 0.09 0.09 91 1007.4
20260508095905 65 10 13.9 20.9 0.06 0.07 0.07 90 1007.5
20260508094906 65 21 12.2 17.4 0.06 0.06 0.06 90 1007.6
20260508094405 64 18 12.2 18.2 0.06 0.06 0.06 90 1007.7
20260508093405 65 12 11.3 17.4 0.03 0.03 0.03 89 1008.0
20260508092406 65 15 12.2 19.1 0.01 0.01 0.01 88 1008.1
20260508091405 65 6 13.9 17.4 0.01 0.01 0.01 87 1008.2
20260508090405 65 356 12.2 18.2 0.01 0.01 0.01 87 1008.4
20260508085905 65 3 13.9 17.4 0.01 0.01 0.01 86 1008.3
20260508084904 65 9 13.9 20.0 0.00 0.00 0.00 86 1008.3
20260508083905 65 352 15.6 20.9 0.00 0.00 0.00 86 1008.4
20260508082906 65 8 14.8 21.7 0.00 0.00 0.00 86 1008.2
20260508082405 65 3 13.0 20.0 0.00 0.00 0.00 87 1008.3
20260508081406 65 0 12.2 20.0 0.00 0.00 0.00 87 1008.6
20260508080406 65 0 13.9 19.1 0.00 0.00 0.00 86 1008.7
20260508074905 66 4 13.9 22.6 0.00 0.00 0.00 84 1008.6
20260508074405 66 10 12.2 18.2 0.00 0.00 0.00 84 1008.7
20260508073906 66 357 13.0 20.0 0.00 0.00 0.00 84 1008.8
20260508070404 65 8 12.2 17.4 0.00 0.00 0.00 86 1008.5
20260508065905 65 19 13.9 18.2 0.00 0.00 0.00 86 1008.5
20260508065405 65 22 15.6 20.9 0.00 0.00 0.00 87 1008.4
20260508064905 65 19 17.4 21.7 0.00 0.00 0.00 86 1008.7
20260508064404 65 17 17.4 24.3 0.00 0.00 0.00 87 1008.8
20260508063906 65 25 13.9 19.1 0.00 0.00 0.00 87 1008.8
20260508061405 65 7 13.9 22.6 0.00 0.00 0.00 87 1009.4
20260508060904 65 5 14.8 22.6 0.00 0.00 0.00 88 1009.5
20260508060406 65 1 14.8 20.0 0.00 0.00 0.00 88 1009.8
20260508055905 65 7 13.9 19.1 0.00 0.00 0.00 88 1010.1
20260508055405 65 6 13.9 19.1 0.00 0.00 0.00 88 1010.2
20260508053905 65 356 13.9 18.2 0.00 0.00 0.00 88 1010.4
20260508052906 65 8 13.9 25.2 0.00 0.00 0.00 88 1010.5
20260508051905 65 0 14.8 21.7 0.00 0.00 0.00 87 1010.7
20260508051405 65 356 15.6 22.6 0.00 0.00 0.00 86 1010.9
20260508050905 66 1 13.9 19.1 0.00 0.00 0.00 84 1010.9
20260508050405 66 354 15.6 20.9 0.00 0.00 0.00 84 1010.9
20260508045905 66 0 12.2 18.2 0.00 0.00 0.00 84 1010.9
20260508043906 66 9 12.2 17.4 0.00 0.00 0.00 83 1011.2